Powrót do katalogu

STARLINK-38055

AktywnyŁącznośćSSO
NORAD 69704·PAYLOAD·🇺🇸 United States

Wystrzelony Jun 28, 2026 z Vandenberg Space Force Base

Loading…

Następne Przeloty (najbliższe 24 godziny)

TLE

ŚwieżeSource: CelesTrak SupGP

Epoka: Sep 14, 2026, 23:33 UTC

1 69704C 26147A   26257.98173611  .00035041  00000+0  10878-2 0  2579
2 69704  97.2837 294.3421 0001109 100.1652 230.9180 15.33419510    11

Śledź STARLINK-38055 w czasie rzeczywistym z AllMySat

Download on the App Store